Hydro-Met Data Report Part 1
Issued by NWS Binghamton, NY

Home | Current Version | Previous Version | Text Only | Print | Product List | Glossary On
Versions: 1 2 3 4 5 6 7 8 9 10 11 12 13 14 15 16 17 18 19 20 21 22 23 24 25 26 27 28 29 30 31 32 33 34 35 36 37 38 39 40 41 42 43 44 45 46 47 48 49 50
000
SRUS51 KBGM 281322
RR1BGM

HYDROMETEOROLOGICAL DATA REPORT
NATIONAL WEATHER SERVICE BINGHAMTON NY

.A GNVN6 20150528 E DH0800 /HPIRZ 446.10 : GENEVA BCD
.A GNVN6 20150528 E DH0800 /PP 0.00 : GENEVA PRECIP
.A ICYN6 20150528 E DH0800 /HPIRZ 382.62 : ITHACA TERMINAL NGVD29
.A SCBN6 20150528 E DH0800 /QRIRZ 1.141 : LOCK CS-1 CAYUGA (MUD LOCK) DISCHARGE KCFS. (CFS = 1140.560)
.A CAYN6 20150528 E DH0800 /HPIRZ 383.49 : LOCK CS-1 CAYUGA (MUD LOCK) UPPER GAGE EL. BCD
.A CAYN6 20150528 E DH0800 /PP 0.02 : LOCK CS-1 CAYUGA (MUD LOCK) PRECIP.
.A CLYN6 20150528 E DH0800 /HPIRZ 384.82 : LOCK E-26 CLYDE UPPER BCD 385.90
.A CYBN6 20150528 E DH0800 /HPIRZ 379.82 : LOCK E-26 CLYDE LOWER BCD 380.90
.A CLYN6 20150528 E DH0800 /QUIRZ 0.592 : CLYDE LOCK E-26 DISCHARGE KCFS. (CFS = 592.16)
.A MAYN6 20150528 E DH0800 /HPIRZ 380.80 : MAYS POINT LOCK E-25 UPPER BCD 380.80
.A MAZN6 20150528 E DH0800 /HPIRZ 375.00 : MAYS POINT LOCK E-25 LOWER BCD 375.00
.A MAYN6 20150528 E DH0800 /PP 0.00 : MAYS POINT PRECIP 0.00
.A OWSN6 20150528 E DH0800 /QUIRZ 0.333 : OWASCO LAKE DISCHARGE KCFS. (CFS = 333.00)
.A CRXN6 20150528 E DH0800 /HPIRZ 373.90 : CROSS LAKE BCD 374.95
.A CRXN6 20150528 E DH0800 /PP 0.06 : CROSS LAKE PRECIP 0.06
.A BAAN6 20150528 E DH0800 /HPIRZ 372.77 :BALDWINSVILLE  E-24 UP BCD 373.85
.A BAXN6 20150528 E DH0800 /HPIRZ 363.32 :BALDWINSVILLE  E-24 LO BCD 364.40
.A BALN6 20150528 E DH0800 /HPIRZ M :BALDWINSVILLE USGS M FT
.A BALN6 20150528 E DH0800 /QUIRZ 2.88 :BALDWINSVILLE USGS DISCHARGE KCFS. (CFS = 2880.00)
.A BALN6 20150528 E DH0800 /PP 0.06 : BALWINSVILLE LOCK E-24 PRECIP 0.06
.A ONLN6 20150528 E DH0800 /HPIRZ 362.34 : ONONDAGA LAKE BCD 363.35
.A CLEN6 20150528 E DH0800 /HPIRZ 369.78 : CLEVELAND BCD 371.31
.A CLEN6 20150528 E DH0800 /PP M : CLEVELAND PRECIP #N/A
.A CAUN6 20150528 E DH0800 /HPIRZ 369.84 : BREWERTON LOCK E-23 UPPER BCD 370.90
.A BWTN6 20150528 E DH0800 /HPIRZ 362.84 : BREWERTON LOCK E-23 LOWER BCD 363.90
.A BWTN6 20150528 E DH0800 /QRIRZ 1.010 : BREWERTON LOCK E-23 DISCHARGE KCFS. (CFS = 1010.00 )
.A BWTN6 20150528 E DH0800 /HPIRP 362.98 : BREWERTON USGS 362.98
.A BWTN6 20150528 E DH0800 /SF 0.00 : BREWERTON SNOWFALL 0.00
.A BWTN6 20150528 E DH0800 /PP 0.08 : BREWERTON PRECIP 0.08
.A PXAN6 20150528 E DH0800 /HPIRZ 362.85 : PHOENIX LOCK O-1 UPPER BCD 363.90
.A PXBN6 20150528 E DH0800 /HPIRZ 353.95 : PHOENIX LOCK O-1 LOWER BCD 355.00
.A PXAN6 20150528 E DH0800 /QUIRZ 4.175 : PHOENIX LOCK O-1 DISCHARGE KCFS. (CFS = 4175.00 )



USA.gov is the U.S. government's official web portal to all federal, state and local government web resources and services.